LS Concorde — ZDHJ7 — position and weather

sailwx.info

Track history (hours):
 
Tides and Currents Weather Stations Pressure Air Temp Water Temp Dewpoint Dewpoint Depression Visibility Wind Speed Wind Dir Waves Ship Positions

LS Concorde

Last reported at 2014-Aug-29 04:32 UTC. Time now 2014-Aug-29 12:19 UTC.
Position N 55°53' E 010°53'.

Length 99 m; draft 5 m.

Type: Tanker. MMSI: 236329000.

Date/timePositionNaut miles runAvg speedWind from/ knotsBaromVisibWave heightAir tempDewpointWater temp
2014-Aug-29 04:32N 55°53' E 010°53'19 9.6
2014-Aug-29 02:32N 56°08' E 011°13'1110.0
2014-Aug-29 01:25N 56°08' E 011°33'8 9.8
2014-Aug-29 00:33N 56°09' E 011°48'9 9.3
2014-Aug-28 23:33N 56°11' E 012°04'8 8.5
2014-Aug-28 22:33N 56°13' E 012°19'1110.9
2014-Aug-28 21:33N 56°06' E 012°34'1211.7
2014-Aug-28 20:33N 55°56' E 012°44'1111.1
2014-Aug-28 19:33N 55°45' E 012°50'9 9.3
2014-Aug-28 18:33N 55°36' E 012°52'1111.0
2014-Aug-28 17:33N 55°26' E 012°43'9 9.1
2014-Aug-28 16:33N 55°17' E 012°47'1010.3
2014-Aug-28 15:33N 55°16' E 013°05'1010.1
2014-Aug-28 14:33N 55°15' E 013°22'2110.5
2014-Aug-28 12:33N 55°14' E 013°59'1010.1
2014-Aug-28 11:33N 55°14' E 014°17'1110.4
2014-Aug-28 10:31N 55°23' E 014°29'1210.2
2014-Aug-28 09:20N 55°30' E 014°46'2810.1
2014-Aug-28 06:33N 55°44' E 015°29'3210.6
2014-Aug-28 03:33N 55°60' E 016°18'  
2014-Aug-21 03:33N 55°56' E 016°22'3811.9
2014-Aug-21 00:23N 55°37' E 015°23'1312.1
2014-Aug-20 23:21N 55°31' E 015°04'1012.1
2014-Aug-20 22:34N 55°27' E 014°49'1211.5
2014-Aug-20 21:32N 55°19' E 014°33'1111.5
2014-Aug-20 20:34N 55°10' E 014°21'1311.2
2014-Aug-20 19:24N 55°01' E 014°06'1012.2
2014-Aug-20 18:33N 54°57' E 013°49'1312.6
2014-Aug-20 17:33N 54°53' E 013°28'1212.3
2014-Aug-20 16:33N 54°49' E 013°08'1212.5
2014-Aug-20 15:33N 54°45' E 012°47'1312.7
2014-Aug-20 14:34N 54°39' E 012°29'1312.6
2014-Aug-20 13:33N 54°29' E 012°15'1111.1
2014-Aug-20 12:33N 54°25' E 011°57'  
Track history (hours):
 
Tides and Currents Weather Stations Pressure Air Temp Water Temp Dewpoint Dewpoint Depression Visibility Wind Speed Wind Dir Waves Ship Positions

LS Concorde

Last reported at 2014-Aug-29 04:32 UTC. Time now 2014-Aug-29 12:19 UTC.
Position N 55°53' E 010°53'.

Length 99 m; draft 5 m.

Type: Tanker. MMSI: 236329000.

Date/timePositionNaut miles runAvg speedWind from/ knotsBaromVisibWave heightAir tempDewpointWater temp
2014-Aug-29 04:32N 55°53' E 010°53'19 9.6
2014-Aug-29 02:32N 56°08' E 011°13'1110.0
2014-Aug-29 01:25N 56°08' E 011°33'8 9.8
2014-Aug-29 00:33N 56°09' E 011°48'9 9.3
2014-Aug-28 23:33N 56°11' E 012°04'8 8.5
2014-Aug-28 22:33N 56°13' E 012°19'1110.9
2014-Aug-28 21:33N 56°06' E 012°34'1211.7
2014-Aug-28 20:33N 55°56' E 012°44'1111.1
2014-Aug-28 19:33N 55°45' E 012°50'9 9.3
2014-Aug-28 18:33N 55°36' E 012°52'1111.0
2014-Aug-28 17:33N 55°26' E 012°43'9 9.1
2014-Aug-28 16:33N 55°17' E 012°47'1010.3
2014-Aug-28 15:33N 55°16' E 013°05'1010.1
2014-Aug-28 14:33N 55°15' E 013°22'2110.5
2014-Aug-28 12:33N 55°14' E 013°59'1010.1
2014-Aug-28 11:33N 55°14' E 014°17'1110.4
2014-Aug-28 10:31N 55°23' E 014°29'1210.2
2014-Aug-28 09:20N 55°30' E 014°46'2810.1
2014-Aug-28 06:33N 55°44' E 015°29'3210.6
2014-Aug-28 03:33N 55°60' E 016°18'  
2014-Aug-21 03:33N 55°56' E 016°22'3811.9
2014-Aug-21 00:23N 55°37' E 015°23'1312.1
2014-Aug-20 23:21N 55°31' E 015°04'1012.1
2014-Aug-20 22:34N 55°27' E 014°49'1211.5
2014-Aug-20 21:32N 55°19' E 014°33'1111.5
2014-Aug-20 20:34N 55°10' E 014°21'1311.2
2014-Aug-20 19:24N 55°01' E 014°06'1012.2
2014-Aug-20 18:33N 54°57' E 013°49'1312.6
2014-Aug-20 17:33N 54°53' E 013°28'1212.3
2014-Aug-20 16:33N 54°49' E 013°08'1212.5
2014-Aug-20 15:33N 54°45' E 012°47'1312.7
2014-Aug-20 14:34N 54°39' E 012°29'1312.6
2014-Aug-20 13:33N 54°29' E 012°15'1111.1
2014-Aug-20 12:33N 54°25' E 011°57'  

Dump ship's entire track history